N5CSU Weather Reports


Display with metric or nautical units.
time (UTC)temp
F
wind
direction
speed
MPH
gust
MPH
rain 1hr
in
rain 24hr
in
rain mn
in
humidity
%
barometer
mb
20260901195454 99 275 0.0 1.0 0.00 0.00 0.00 44 1014.6
20260901194949 99 187 0.0 0.0 0.00 0.00 0.00 42 1014.7
20260901194444 99 193 0.0 0.0 0.00 0.00 0.00 43 1014.7
20260901193940 100 194 0.0 0.0 0.00 0.00 0.00 42 1014.7
20260901193439 99 222 0.0 1.0 0.00 0.00 0.00 41 1014.8
20260901192938 99 176 0.0 0.0 0.00 0.00 0.00 43 1014.9
20260901192435 99 282 0.0 0.0 0.00 0.00 0.00 42 1015.1
20260901191926 99 357 0.0 0.0 0.00 0.00 0.00 42 1015.0
20260901191421 99 194 0.0 0.0 0.00 0.00 0.00 42 1015.1
20260901190917 99 196 0.0 0.0 0.00 0.00 0.00 43 1015.2
20260901190417 99 222 0.0 0.0 0.00 0.00 0.00 42 1015.3
20260901185915 99 179 0.0 1.0 0.00 0.00 0.00 43 1015.3
20260901185414 99 191 0.0 0.0 0.00 0.00 0.00 42 1015.3
20260901184909 99 178 0.0 0.0 0.00 0.00 0.00 41 1015.5
20260901184404 98 179 0.0 0.0 0.00 0.00 0.00 42 1015.6
20260901183904 99 10 1.0 1.0 0.00 0.00 0.00 40 1015.6
20260901183404 99 198 0.0 0.0 0.00 0.00 0.00 42 1016.0
20260901182900 97 199 0.0 0.0 0.00 0.00 0.00 45 1016.1
20260901182355 97 177 0.0 0.0 0.00 0.00 0.00 44 1016.0
20260901181850 98 206 0.0 0.0 0.00 0.00 0.00 44 1016.3
20260901181345 97 201 0.0 0.0 0.00 0.00 0.00 45 1016.3
20260901180844 98 54 0.0 0.0 0.00 0.00 0.00 44 1016.4
20260901180343 97 188 0.0 0.0 0.00 0.00 0.00 46 1016.6
20260901175842 96 202 0.0 0.0 0.00 0.00 0.00 47 1016.7
20260901175337 95 207 0.0 0.0 0.00 0.00 0.00 47 1016.6
20260901174832 95 230 0.0 0.0 0.00 0.00 0.00 47 1016.8
20260901174328 97 219 0.0 0.0 0.00 0.00 0.00 46 1017.1
20260901173823 98 199 0.0 0.0 0.00 0.00 0.00 46 1016.9
20260901173318 97 212 0.0 0.0 0.00 0.00 0.00 46 1017.0
20260901172815 97 196 0.0 0.0 0.00 0.00 0.00 47 1017.2
20260901172314 97 198 0.0 0.0 0.00 0.00 0.00 47 1017.2
20260901171811 96 58 1.0 1.0 0.00 0.00 0.00 48 1017.1
20260901171310 97 214 0.0 0.0 0.00 0.00 0.00 47 1017.2
20260901170804 96 175 0.0 1.0 0.00 0.00 0.00 47 1017.0
20260901170259 95 72 0.0 0.0 0.00 0.00 0.00 50 1017.3
20260901165758 95 192 0.0 0.0 0.00 0.00 0.00 51 1017.3
20260901165253 94 229 0.0 0.0 0.00 0.00 0.00 50 1017.3
20260901164749 95 197 0.0 0.0 0.00 0.00 0.00 49 1017.5
20260901164245 97 207 0.0 0.0 0.00 0.00 0.00 47 1017.6
20260901163739 97 189 0.0 0.0 0.00 0.00 0.00 48 1017.6
20260901163239 97 204 0.0 0.0 0.00 0.00 0.00 47 1017.7
20260901162734 96 191 0.0 0.0 0.00 0.00 0.00 49 1017.6
20260901162233 96 200 0.0 0.0 0.00 0.00 0.00 50 1017.5
20260901161732 96 198 0.0 1.0 0.00 0.00 0.00 50 1017.8
20260901161227 96 204 0.0 0.0 0.00 0.00 0.00 50 1017.8
20260901160723 95 210 0.0 0.0 0.00 0.00 0.00 52 1017.6
20260901160218 94 220 0.0 1.0 0.00 0.00 0.00 53 1017.6
20260901155717 93 239 0.0 0.0 0.00 0.00 0.00 53 1017.5
20260901155213 92 187 1.0 1.0 0.00 0.00 0.00 55 1017.7
20260901154708 92 54 1.0 1.0 0.00 0.00 0.00 56 1017.6
20260901154203 92 210 0.0 0.0 0.00 0.00 0.00 56 1017.9
20260901153658 91 221 0.0 0.0 0.00 0.00 0.00 57 1017.7
20260901153157 91 186 0.0 0.0 0.00 0.00 0.00 58 1017.5
20260901152652 90 182 0.0 0.0 0.00 0.00 0.00 58 1017.6
20260901152150 90 201 0.0 0.0 0.00 0.00 0.00 59 1017.6
20260901151646 90 203 0.0 0.0 0.00 0.00 0.00 59 1017.6
20260901151140 90 208 0.0 0.0 0.00 0.00 0.00 60 1017.6
20260901150639 89 227 0.0 0.0 0.00 0.00 0.00 61 1017.7
20260901150137 89 197 0.0 0.0 0.00 0.00 0.00 62 1017.5
20260901145636 89 214 0.0 0.0 0.00 0.00 0.00 62 1017.8
20260901145135 89 198 0.0 0.0 0.00 0.00 0.00 63 1017.9
20260901144631 88 198 0.0 0.0 0.00 0.00 0.00 65 1017.8
20260901144126 87 196 0.0 0.0 0.00 0.00 0.00 65 1017.9
20260901143621 87 190 0.0 0.0 0.00 0.00 0.00 66 1017.9
20260901143118 87 186 0.0 0.0 0.00 0.00 0.00 66 1017.8
20260901142614 87 195 0.0 0.0 0.00 0.00 0.00 67 1017.9
20260901142113 86 185 0.0 0.0 0.00 0.00 0.00 67 1017.8
20260901141608 86 211 0.0 0.0 0.00 0.00 0.00 67 1017.9
20260901141103 86 203 0.0 0.0 0.00 0.00 0.00 68 1017.7
20260901140602 86 201 0.0 0.0 0.00 0.00 0.00 68 1017.6
20260901135600 85 193 0.0 0.0 0.00 0.00 0.00 70 1017.8
20260901135051 84 191 0.0 0.0 0.00 0.00 0.00 70 1017.8
20260901134546 84 213 0.0 0.0 0.00 0.00 0.00 70 1017.8
20260901134041 84 209 0.0 0.0 0.00 0.00 0.00 70 1017.9
20260901133540 83 191 0.0 0.0 0.00 0.00 0.00 71 1017.9
20260901133038 83 201 0.0 0.0 0.00 0.00 0.00 71 1018.0
20260901132533 83 201 0.0 0.0 0.00 0.00 0.00 72 1017.9
20260901132032 82 201 0.0 0.0 0.00 0.00 0.00 72 1017.8
20260901131526 82 201 0.0 0.0 0.00 0.00 0.00 73 1017.8
20260901131017 82 198 0.0 0.0 0.00 0.00 0.00 73 1017.6
20260901130516 81 198 0.0 0.0 0.00 0.00 0.00 73 1017.8
20260901130009 81 198 0.0 0.0 0.00 0.00 0.00 74 1017.8
20260901125508 80 196 0.0 0.0 0.00 0.00 0.00 75 1017.8
20260901125003 80 196 0.0 0.0 0.00 0.00 0.00 75 1017.5
20260901124458 79 203 0.0 0.0 0.00 0.00 0.00 76 1017.5
20260901123953 79 202 0.0 0.0 0.00 0.00 0.00 76 1017.3
20260901123448 79 202 0.0 0.0 0.00 0.00 0.00 77 1017.3
20260901122946 78 203 0.0 0.0 0.00 0.00 0.00 77 1017.3
20260901122445 78 203 0.0 0.0 0.00 0.00 0.00 77 1017.2
20260901121945 78 203 0.0 0.0 0.00 0.00 0.00 77 1017.2
20260901121439 78 203 0.0 0.0 0.00 0.00 0.00 77 1017.1
20260901120935 78 203 0.0 0.0 0.00 0.00 0.00 76 1017.0
20260901120429 79 203 0.0 0.0 0.00 0.00 0.00 76 1016.8
20260901115925 79 203 0.0 0.0 0.00 0.00 0.00 76 1016.8
20260901115424 79 203 0.0 0.0 0.00 0.00 0.00 75 1016.8
20260901114923 79 203 0.0 0.0 0.00 0.00 0.00 75 1016.7
20260901114418 79 203 0.0 0.0 0.00 0.00 0.00 75 1016.5
20260901113916 79 203 0.0 0.0 0.00 0.00 0.00 75 1016.7
20260901113416 79 203 0.0 0.0 0.00 0.00 0.00 74 1016.7
20260901112911 79 203 0.0 0.0 0.00 0.00 0.00 74 1016.7
20260901112406 79 203 0.0 0.0 0.00 0.00 0.00 74 1016.5
20260901111900 80 203 0.0 0.0 0.00 0.00 0.00 74 1016.6
20260901111358 80 203 0.0 0.0 0.00 0.00 0.00 73 1016.5
20260901110857 80 202 0.0 0.0 0.00 0.00 0.00 73 1016.6
20260901110353 80 203 0.0 0.0 0.00 0.00 0.00 73 1016.6
20260901105848 80 202 0.0 0.0 0.00 0.00 0.00 72 1016.6
20260901105343 80 202 0.0 0.0 0.00 0.00 0.00 72 1016.4
20260901104840 80 201 0.0 0.0 0.00 0.00 0.00 71 1016.5
20260901104335 80 201 0.0 0.0 0.00 0.00 0.00 71 1016.4
20260901103830 80 201 0.0 0.0 0.00 0.00 0.00 70 1016.4
20260901103324 81 201 0.0 0.0 0.00 0.00 0.00 70 1016.6
20260901102819 81 201 0.0 0.0 0.00 0.00 0.00 70 1016.5
20260901102314 81 200 0.0 0.0 0.00 0.00 0.00 69 1016.6
20260901101809 81 200 0.0 0.0 0.00 0.00 0.00 68 1016.5
20260901101304 82 199 0.0 0.0 0.00 0.00 0.00 68 1016.6
20260901100803 82 202 0.0 0.0 0.00 0.00 0.00 68 1016.6
20260901100257 81 199 0.0 0.0 0.00 0.00 0.00 68 1016.5
20260901095756 82 193 0.0 0.0 0.00 0.00 0.00 68 1016.6
20260901095253 82 199 0.0 0.0 0.00 0.00 0.00 67 1016.6
20260901094743 82 198 0.0 0.0 0.00 0.00 0.00 67 1016.6
20260901094238 82 208 0.0 0.0 0.00 0.00 0.00 67 1016.5
20260901093733 82 193 0.0 0.0 0.00 0.00 0.00 67 1016.6
20260901093232 82 201 0.0 0.0 0.00 0.00 0.00 67 1016.5
20260901092728 82 201 0.0 0.0 0.00 0.00 0.00 66 1016.6
20260901092224 82 201 0.0 0.0 0.00 0.00 0.00 66 1016.6
20260901091719 82 201 0.0 0.0 0.00 0.00 0.00 66 1016.5
20260901091214 82 199 0.0 0.0 0.00 0.00 0.00 66 1016.6
20260901090709 82 203 0.0 0.0 0.00 0.00 0.00 65 1016.6
20260901090204 82 204 0.0 0.0 0.00 0.00 0.00 65 1016.5
20260901085700 82 205 0.0 0.0 0.00 0.00 0.00 65 1016.4
20260901085155 83 199 0.0 0.0 0.00 0.00 0.00 65 1016.3
20260901084651 83 197 0.0 0.0 0.00 0.00 0.00 64 1016.1
20260901084147 83 193 0.0 0.0 0.00 0.00 0.00 64 1016.4
20260901083641 83 193 0.0 0.0 0.00 0.00 0.00 64 1016.3
20260901083140 83 202 0.0 0.0 0.00 0.00 0.00 63 1016.3
20260901082639 84 203 0.0 0.0 0.00 0.00 0.00 63 1016.1
20260901082135 84 200 0.0 0.0 0.00 0.00 0.00 62 1016.3
20260901081630 84 193 0.0 0.0 0.00 0.00 0.00 62 1016.5
20260901081125 84 201 0.0 0.0 0.00 0.00 0.00 61 1016.3
20260901080619 84 198 0.0 0.0 0.00 0.00 0.00 61 1016.4
20260901080119 85 197 0.0 0.0 0.00 0.00 0.00 60 1016.5
20260901075615 85 197 0.0 0.0 0.00 0.00 0.00 60 1016.1
20260901075114 85 203 0.0 0.0 0.00 0.00 0.00 60 1016.4
20260901074614 85 202 0.0 0.0 0.00 0.00 0.00 59 1016.4
20260901074113 85 198 0.0 0.0 0.00 0.00 0.00 59 1016.3
20260901073610 86 196 0.0 0.0 0.00 0.00 0.00 58 1016.3
20260901073105 86 201 0.0 0.0 0.00 0.00 0.00 58 1016.4
20260901072601 86 202 0.0 0.0 0.00 0.00 0.00 58 1016.3
20260901072055 86 208 0.0 0.0 0.00 0.00 0.00 58 1016.1
20260901071550 86 210 0.0 0.0 0.00 0.00 0.00 58 1016.1
20260901071049 86 210 0.0 0.0 0.00 0.00 0.00 57 1016.1
20260901070543 86 205 0.0 0.0 0.00 0.00 0.00 57 1016.1
20260901070039 87 199 0.0 0.0 0.00 0.00 0.00 56 1015.9
20260901065533 87 195 0.0 0.0 0.00 0.00 0.00 56 1016.0
20260901065028 87 196 0.0 0.0 0.00 0.00 0.00 55 1015.9
20260901064525 87 204 0.0 0.0 0.00 0.00 0.00 55 1016.1
20260901064021 87 191 0.0 0.0 0.00 0.00 0.00 55 1016.0
20260901063518 87 196 0.0 0.0 0.00 0.00 0.00 54 1015.7
20260901063013 87 198 0.0 0.0 0.00 0.00 0.00 54 1015.9
20260901062508 87 193 0.0 0.0 0.00 0.00 0.00 55 1015.9
20260901061959 88 192 0.0 0.0 0.00 0.00 0.00 54 1015.9
20260901061455 88 193 0.0 0.0 0.00 0.00 0.00 53 1015.8
20260901060954 87 191 0.0 0.0 0.00 0.00 0.00 53 1015.5
20260901060444 87 198 0.0 0.0 0.00 0.00 0.00 54 1015.6
20260901055944 87 200 0.0 0.0 0.00 0.00 0.00 53 1015.8
20260901055441 87 197 0.0 0.0 0.00 0.00 0.00 53 1015.6
20260901054937 87 214 0.0 1.0 0.00 0.00 0.00 53 1015.4
20260901054434 87 205 0.0 0.0 0.00 0.00 0.00 52 1015.4
20260901053930 88 191 0.0 0.0 0.00 0.00 0.00 51 1015.3
20260901053425 88 189 0.0 0.0 0.00 0.00 0.00 51 1015.2
20260901052920 88 188 0.0 0.0 0.00 0.00 0.00 51 1015.2
20260901052415 88 193 0.0 0.0 0.00 0.00 0.00 50 1015.4
20260901051913 88 187 0.0 0.0 0.00 0.00 0.00 50 1015.2
20260901051409 88 191 0.0 0.0 0.00 0.00 0.00 50 1015.3
20260901050904 88 197 0.0 0.0 0.00 0.00 0.00 51 1015.1
20260901050400 88 193 0.0 0.0 0.00 0.00 0.00 49 1015.0
20260901045859 88 196 0.0 0.0 0.00 0.00 0.00 50 1015.4
20260901045354 87 192 0.0 0.0 0.00 0.00 0.00 51 1015.0
20260901044849 86 198 0.0 0.0 0.00 0.00 0.00 54 1014.9
20260901044346 85 205 0.0 0.0 0.00 0.00 0.00 53 1014.7
20260901043842 84 195 0.0 0.0 0.00 0.00 0.00 55 1014.9
20260901043338 84 196 0.0 0.0 0.00 0.00 0.00 56 1015.1
20260901042836 84 204 0.0 0.0 0.00 0.00 0.00 56 1014.8
20260901042331 84 200 0.0 0.0 0.00 0.00 0.00 56 1014.9
20260901041826 84 201 0.0 0.0 0.00 0.00 0.00 56 1014.9
20260901041321 84 201 0.0 0.0 0.00 0.00 0.00 55 1014.9
20260901040816 84 200 0.0 0.0 0.00 0.00 0.00 55 1014.9
20260901040315 85 200 0.0 0.0 0.00 0.00 0.00 54 1014.8
20260901035814 85 202 0.0 0.0 0.00 0.00 0.00 54 1014.9
20260901035313 85 203 0.0 0.0 0.00 0.00 0.00 53 1014.8
20260901034812 86 202 0.0 0.0 0.00 0.00 0.00 53 1014.9
20260901034307 86 203 0.0 0.0 0.00 0.00 0.00 52 1014.8
20260901033802 86 205 0.0 0.0 0.00 0.00 0.00 52 1014.8
20260901033301 87 202 0.0 0.0 0.00 0.00 0.00 51 1014.8
20260901032800 87 197 0.0 0.0 0.00 0.00 0.00 50 1014.8
20260901032300 87 197 0.0 0.0 0.00 0.00 0.00 49 1014.8
20260901031755 88 201 0.0 0.0 0.00 0.00 0.00 48 1014.8
20260901031251 88 201 0.0 0.0 0.00 0.00 0.00 48 1014.9
20260901030751 89 201 0.0 0.0 0.00 0.00 0.00 47 1014.8
20260901030246 89 201 0.0 0.0 0.00 0.00 0.00 46 1014.6
20260901025745 89 201 0.0 0.0 0.00 0.00 0.00 47 1014.6
20260901025240 89 201 0.0 0.0 0.00 0.00 0.00 46 1014.4
20260901024735 90 202 0.0 0.0 0.00 0.00 0.00 45 1014.5
20260901024234 90 203 0.0 0.0 0.00 0.00 0.00 45 1014.4
20260901023732 90 199 0.0 0.0 0.00 0.00 0.00 45 1014.3
20260901023227 90 194 0.0 0.0 0.00 0.00 0.00 45 1014.3
20260901022723 90 199 0.0 0.0 0.00 0.00 0.00 44 1014.3
20260901022218 90 199 0.0 0.0 0.00 0.00 0.00 44 1014.1
20260901021713 91 200 0.0 0.0 0.00 0.00 0.00 44 1014.0
20260901021209 91 194 0.0 0.0 0.00 0.00 0.00 44 1013.9
20260901020704 91 196 0.0 0.0 0.00 0.00 0.00 43 1014.0
20260901020200 91 204 0.0 0.0 0.00 0.00 0.00 43 1013.9
20260901015655 91 200 0.0 0.0 0.00 0.00 0.00 43 1013.9
20260901015154 91 158 0.0 0.0 0.00 0.00 0.00 42 1014.0
20260901014649 92 203 0.0 0.0 0.00 0.00 0.00 42 1014.0
20260901014145 92 202 0.0 0.0 0.00 0.00 0.00 42 1013.9
20260901013640 92 205 0.0 0.0 0.00 0.00 0.00 42 1013.9
20260901013136 92 206 0.0 0.0 0.00 0.00 0.00 41 1013.9
20260901012631 93 203 0.0 0.0 0.00 0.00 0.00 41 1013.9
20260901012126 93 203 0.0 0.0 0.00 0.00 0.00 40 1013.8
20260901011622 93 203 0.0 0.0 0.00 0.00 0.00 40 1013.6
20260901011120 93 207 0.0 0.0 0.00 0.00 0.00 39 1013.6
20260901010615 94 206 0.0 0.0 0.00 0.00 0.00 39 1013.7
20260901010109 94 216 0.0 0.0 0.00 0.00 0.00 38 1013.7
20260901005604 94 225 0.0 0.0 0.00 0.00 0.00 38 1013.5
20260901005059 95 209 0.0 0.0 0.00 0.00 0.00 37 1013.5
20260901004558 95 195 0.0 0.0 0.00 0.00 0.00 37 1013.6
20260901004054 95 197 0.0 0.0 0.00 0.00 0.00 37 1013.6
20260901003549 95 197 0.0 0.0 0.00 0.00 0.00 36 1013.6
20260901003047 95 191 0.0 0.0 0.00 0.00 0.00 36 1013.6
20260901002546 96 203 0.0 0.0 0.00 0.00 0.00 35 1013.5
20260901002042 96 189 0.0 0.0 0.00 0.00 0.00 35 1013.4
20260901001537 96 197 0.0 0.0 0.00 0.00 0.00 34 1013.5
20260901001032 97 197 0.0 0.0 0.00 0.00 0.00 34 1013.5
20260901000531 97 202 0.0 0.0 0.00 0.00 0.00 34 1013.5
20260901000028 97 149 0.0 0.0 0.00 0.00 0.00 34 1013.6
20260831235521 97 192 0.0 0.0 0.00 0.00 0.00 34 1013.6
20260831235017 98 208 0.0 0.0 0.00 0.00 0.00 34 1013.4
20260831234511 98 196 0.0 0.0 0.00 0.00 0.00 34 1013.6
20260831234007 98 195 0.0 1.0 0.00 0.00 0.00 33 1013.6
20260831233501 98 205 0.0 1.0 0.00 0.00 0.00 33 1013.5
20260831232957 98 192 1.0 1.0 0.00 0.00 0.00 32 1013.4
20260831232452 98 197 0.0 0.0 0.00 0.00 0.00 33 1013.4
20260831231948 98 196 0.0 0.0 0.00 0.00 0.00 33 1013.5
20260831231439 99 253 0.0 1.0 0.00 0.00 0.00 33 1013.3
20260831230935 99 193 0.0 0.0 0.00 0.00 0.00 34 1013.5
20260831230435 99 193 0.0 0.0 0.00 0.00 0.00 33 1013.5
20260831225928 99 204 0.0 0.0 0.00 0.00 0.00 32 1013.5
20260831225425 99 200 0.0 0.0 0.00 0.00 0.00 33 1013.6
20260831224919 99 172 0.0 0.0 0.00 0.00 0.00 35 1013.5
20260831224414 100 135 0.0 0.0 0.00 0.00 0.00 33 1013.8
20260831223909 100 191 0.0 0.0 0.00 0.00 0.00 33 1013.8
20260831223404 100 186 0.0 0.0 0.00 0.00 0.00 34 1013.7
20260831222901 100 200 0.0 0.0 0.00 0.00 0.00 34 1013.7
20260831222356 101 204 0.0 0.0 0.00 0.00 0.00 34 1013.8
20260831221851 101 193 0.0 0.0 0.00 0.00 0.00 33 1013.8
20260831221347 100 194 0.0 0.0 0.00 0.00 0.00 34 1013.8
20260831220842 100 202 0.0 0.0 0.00 0.00 0.00 34 1013.9
20260831220337 100 223 0.0 0.0 0.00 0.00 0.00 34 1014.0
20260831215832 99 187 1.0 1.0 0.00 0.00 0.00 34 1014.1
20260831215328 99 189 0.0 0.0 0.00 0.00 0.00 36 1014.0
20260831214825 98 195 0.0 0.0 0.00 0.00 0.00 36 1014.0
20260831214322 98 218 0.0 0.0 0.00 0.00 0.00 36 1014.1
20260831213816 98 198 0.0 0.0 0.00 0.00 0.00 36 1014.4
20260831213307 98 209 0.0 0.0 0.00 0.00 0.00 37 1014.3
20260831212802 99 271 0.0 0.0 0.00 0.00 0.00 35 1014.3
20260831212259 100 179 1.0 1.0 0.00 0.00 0.00 34 1014.3
20260831211757 101 188 1.0 2.0 0.00 0.00 0.00 33 1014.4
20260831211252 101 221 0.0 0.0 0.00 0.00 0.00 33 1014.5
20260831210747 100 186 1.0 1.0 0.00 0.00 0.00 33 1014.4
20260831210243 101 209 1.0 2.0 0.00 0.00 0.00 33 1014.5
20260831205742 102 179 2.0 2.0 0.00 0.00 0.00 32 1014.5
20260831205239 102 190 1.0 1.0 0.00 0.00 0.00 32 1014.5
20260831204738 101 201 0.0 0.0 0.00 0.00 0.00 33 1014.7
20260831204237 101 207 0.0 1.0 0.00 0.00 0.00 33 1014.8
20260831203737 101 229 0.0 1.0 0.00 0.00 0.00 31 1014.7
20260831203232 100 204 0.0 1.0 0.00 0.00 0.00 32 1014.9
20260831202730 100 232 0.0 1.0 0.00 0.00 0.00 32 1015.0
20260831202225 99 199 1.0 1.0 0.00 0.00 0.00 33 1015.0
20260831201724 99 199 0.0 0.0 0.00 0.00 0.00 34 1015.1
20260831201218 100 189 1.0 1.0 0.00 0.00 0.00 34 1015.2
20260831200714 100 187 1.0 1.0 0.00 0.00 0.00 33 1015.2
20260831200208 100 193 1.0 1.0 0.00 0.00 0.00 33 1015.3